Regional Weather Roundup
Issued by NWS

Home | Current Version | Previous Version | Graphics & Text | Print | Product List | Glossary On
Versions: 1 2 3 4 5 6 7 8 9 10 11 12 13 14 15 16 17 18 19 20 21 22 23 24 25 26 27 28 29 30 31 32 33 34 35 36 37 38 39 40 41 42 43 44 45 46 47 48 49 50
000
ASUS45 KCYS 300410
RWRWY

WYOMING REGIONAL WEATHER ROUNDUP
NATIONAL WEATHER SERVICE CHEYENNE WY
1000 PM MDT TUE JUL 29 2014

NOTE:  "FAIR" INDICATES FEW OR NO CLOUDS BELOW 12,000 FEET
WITH NO SIGNIFICANT WEATHER AND/OR OBSTRUCTIONS TO VISIBILITY.

WYZ001-300500-
YELLOWSTONE NATIONAL PARK

CITY           SKY/WX    TMP DP  RH WIND       PRES   REMARKS
LK YELLOWSTONE   N/A     49  47  93 NW3       30.46R
W YELLOWSTONE  NOT AVBL

$$
WYZ002>013-054>058-071-098>099-300500-
NORTHERN WYOMING

CITY           SKY/WX    TMP DP  RH WIND       PRES   REMARKS
JACKSON        CLOUDY    57  54  88 N9        30.35R
CODY           NOT AVBL
GREYBULL       MOCLDY    66  56  70 S5        30.25R
WORLAND        CLOUDY    63  59  87 S7        30.26R
SHERIDAN       MOCLDY    63  51  65 CALM      30.23R
BUFFALO        MOCLDY    60  48  64 S7        30.30R
GILLETTE       MOCLDY    60  55  83 SW7       30.26R
HULETT         FAIR      63  55  77 MISG      30.26
NEWCASTLE      FAIR      61  54  77 E3        30.28

$$
WYZ014>020-022>026-101>103-300500-
CENTRAL WYOMING

CITY           SKY/WX    TMP DP  RH WIND       PRES   REMARKS
BIG PINEY      LGT RAIN  58  54  86 W3        30.39R
PINEDALE       CLOUDY    57  43  58 E9        30.38R
DUBOIS         FAIR      54  46  76 S3        30.41R
LANDER         LGT RAIN  59  56  89 SW3       30.33R
RIVERTON       CLOUDY    59  58  96 CALM      30.34R
CASPER         LGT RAIN  57  54  89 E9        30.32R
DOUGLAS        CLOUDY    58  54  86 S6        30.33R

$$
WYZ021-027>030-104>119-300500-
SOUTHERN WYOMING

CITY           SKY/WX    TMP DP  RH WIND       PRES   REMARKS
EVANSTON       CLOUDY    59  55  87 E15       30.34R
KEMMERER       DRIZZLE   54  52  94 E20G25    30.38R
FORT BRIDGER   CLOUDY    57  57  99 E15       30.38R
ROCK SPRINGS   CLOUDY    56  52  86 NE17      30.35R
DIXON          CLOUDY    60  56  85 CALM      30.32S
RAWLINS        CLOUDY    56  54  93 NE12      30.35R
SARATOGA       CLOUDY    57  54  88 CALM      30.35R
LARAMIE        LGT RAIN  54  52  93 NE7       30.38R
CHEYENNE       RAIN      57  55  93 N9        30.34R FOG
TORRINGTON     LGT RAIN  62  61  96 NW5       30.27R
PINE BLUFFS    LGT RAIN  59  57  94 NE9       30.31R

$$


USA.gov is the U.S. government's official web portal to all federal, state and local government web resources and services.